User: anonymous   Login
Location: Unspecified
(0.0000°N, 0.0000°E)
Time: 08:39:09
(UTC+00:00)
Language:

Hipparcos - Orbit

View from above orbital plane
View from above orbital plane
View from above satellite
View from above satellite

Ground track
Ground track

The orbit data is extracted from the following two-line orbital elements,

1 20169U 89062B   19286.86092161 -.00000040  00000-0 -34087-3 0  9993
2 20169   6.3408 181.8636 7194629 286.4994  10.9146  2.26155862214133
Epoch (UTC): 13 October 2019 20:39:43
Eccentricity: 0.7194629
inclination: 6.3408°
perigee height: 500 km
apogee height: 35777 km
right ascension of ascending node: 181.8636°
argument of perigee: 286.4994°
revolutions per day: 2.26155862
mean anomaly at epoch: 10.9146°
orbit number at epoch: 21413

The dashed part of the orbit path shows where the satellite is in the earth's shadow,  

DLR